User: anonymous   Login
Location: Unspecified
(0.0000°N, 0.0000°E)
Time: 18:17:51
(UTC+00:00)
Language:

Vanguard 1 - Orbit

View from above orbital plane
View from above orbital plane
View from above satellite
View from above satellite

Ground track
Ground track

The orbit data is extracted from the following two-line orbital elements,

1     5U 58002B   19107.29070575 +.00000028 +00000-0 +11134-4 0  9997
2     5 034.2535 103.9527 1844582 230.3233 111.9783 10.84770700158866
Epoch (UTC): 17 April 2019 06:58:36
Eccentricity: 0.1844582
inclination: 34.2535°
perigee height: 652 km
apogee height: 3832 km
right ascension of ascending node: 103.9527°
argument of perigee: 230.3233°
revolutions per day: 10.84770700
mean anomaly at epoch: 111.9783°
orbit number at epoch: 15886

The dashed part of the orbit path shows where the satellite is in the earth's shadow,  

DLR